| time (UTC) | temp F | wind direction | speed MPH | gust MPH | rain 1hr in | rain 24hr in | rain mn in | humidity % | barometer mb |
| 20260903103021 | 69 | 255 | 6.0 | 0.0 | 0.00 | 0.00 | 0.00 | 67 | 997.9 |
| 20260903101526 | 69 | 165 | 7.0 | 0.0 | 0.00 | 0.00 | 0.00 | 65 | 998.0 |
| 20260903100032 | 69 | 196 | 7.0 | 0.0 | 0.00 | 0.00 | 0.00 | 65 | 998.0 |
| 20260903094538 | 70 | 207 | 7.0 | 0.0 | 0.00 | 0.00 | 0.00 | 64 | 998.0 |
| 20260903093039 | 70 | 205 | 5.0 | 0.0 | 0.00 | 0.00 | 0.00 | 63 | 997.7 |
| 20260903091545 | 71 | 246 | 6.0 | 0.0 | 0.00 | 0.00 | 0.00 | 61 | 997.5 |
| 20260903090042 | 71 | 186 | 6.0 | 0.0 | 0.00 | 0.00 | 0.00 | 61 | 997.3 |
| 20260903084528 | 71 | 193 | 4.0 | 0.0 | 0.00 | 0.00 | 0.00 | 61 | 997.2 |
| 20260903083025 | 72 | 128 | 4.0 | 0.0 | 0.00 | 0.00 | 0.00 | 59 | 997.0 |
| 20260903081536 | 73 | 175 | 3.0 | 0.0 | 0.00 | 0.00 | 0.00 | 57 | 997.0 |
| 20260903080037 | 74 | 186 | 4.0 | 0.0 | 0.00 | 0.00 | 0.00 | 56 | 997.2 |
| 20260903074559 | 74 | 217 | 4.0 | 0.0 | 0.00 | 0.00 | 0.00 | 55 | 997.0 |
| 20260903073056 | 74 | 168 | 4.0 | 0.0 | 0.00 | 0.00 | 0.00 | 55 | 997.1 |
| 20260903071600 | 74 | 199 | 5.0 | 0.0 | 0.00 | 0.00 | 0.00 | 55 | 997.4 |
| 20260903070112 | 74 | 189 | 5.0 | 0.0 | 0.00 | 0.00 | 0.00 | 54 | 998.0 |
| 20260903064507 | 75 | 182 | 5.0 | 0.0 | 0.00 | 0.00 | 0.00 | 51 | 998.2 |
| 20260903063016 | 75 | 205 | 7.0 | 0.0 | 0.00 | 0.00 | 0.00 | 49 | 998.1 |
| 20260903061555 | 76 | 212 | 7.0 | 0.0 | 0.00 | 0.00 | 0.00 | 47 | 998.2 |
| 20260903060034 | 76 | 189 | 7.0 | 0.0 | 0.00 | 0.00 | 0.00 | 45 | 998.4 |
| 20260903054523 | 77 | 203 | 7.0 | 0.0 | 0.00 | 0.00 | 0.00 | 43 | 998.5 |
| 20260903053026 | 77 | 205 | 7.0 | 0.0 | 0.00 | 0.00 | 0.00 | 42 | 998.6 |
| 20260903051532 | 78 | 236 | 6.0 | 0.0 | 0.00 | 0.00 | 0.00 | 38 | 998.5 |
| 20260903050035 | 78 | 176 | 5.0 | 0.0 | 0.00 | 0.00 | 0.00 | 33 | 998.8 |
| 20260903044545 | 77 | 202 | 5.0 | 0.0 | 0.00 | 0.00 | 0.00 | 32 | 999.2 |
| 20260903043002 | 77 | 185 | 5.0 | 0.0 | 0.00 | 0.00 | 0.00 | 35 | 999.3 |
| 20260903041518 | 77 | 182 | 5.0 | 0.0 | 0.00 | 0.00 | 0.00 | 35 | 999.2 |
| 20260903040035 | 77 | 198 | 5.0 | 0.0 | 0.00 | 0.00 | 0.00 | 33 | 999.7 |
| 20260903034552 | 77 | 196 | 4.0 | 0.0 | 0.00 | 0.00 | 0.00 | 32 | 999.8 |
| 20260903033056 | 78 | 198 | 5.0 | 0.0 | 0.00 | 0.00 | 0.00 | 32 | 999.8 |
| 20260903031557 | 78 | 186 | 6.0 | 0.0 | 0.00 | 0.00 | 0.00 | 32 | 999.8 |
| 20260903030059 | 79 | 212 | 6.0 | 0.0 | 0.00 | 0.00 | 0.00 | 31 | 1000.1 |
| 20260903024508 | 81 | 185 | 6.0 | 0.0 | 0.00 | 0.00 | 0.00 | 30 | 999.8 |
| 20260903023014 | 83 | 203 | 6.0 | 0.0 | 0.00 | 0.00 | 0.00 | 28 | 999.6 |
| 20260903021544 | 84 | 186 | 6.0 | 0.0 | 0.00 | 0.00 | 0.00 | 26 | 999.3 |
| 20260903020031 | 84 | 223 | 7.0 | 0.0 | 0.00 | 0.00 | 0.00 | 25 | 999.6 |
| 20260903014534 | 84 | 189 | 7.0 | 0.0 | 0.00 | 0.00 | 0.00 | 26 | 999.4 |
| 20260903013028 | 85 | 209 | 6.0 | 0.0 | 0.00 | 0.00 | 0.00 | 27 | 999.4 |
| 20260903011538 | 86 | 193 | 6.0 | 0.0 | 0.00 | 0.00 | 0.00 | 27 | 999.3 |
| 20260903010032 | 87 | 190 | 5.0 | 0.0 | 0.00 | 0.00 | 0.00 | 28 | 999.7 |
| 20260903004540 | 88 | 193 | 4.0 | 0.0 | 0.00 | 0.00 | 0.00 | 28 | 999.5 |
| 20260903003104 | 89 | 217 | 6.0 | 0.0 | 0.00 | 0.00 | 0.00 | 27 | 999.4 |
| 20260903001600 | 90 | 220 | 6.0 | 0.0 | 0.00 | 0.00 | 0.00 | 26 | 999.1 |
| 20260903000004 | 92 | 188 | 6.0 | 0.0 | 0.00 | 0.00 | 0.00 | 25 | 998.9 |
| 20260902234535 | 93 | 217 | 8.0 | 0.0 | 0.00 | 0.00 | 0.00 | 20 | 998.7 |
| 20260902233038 | 94 | 205 | 7.0 | 0.0 | 0.00 | 0.00 | 0.00 | 19 | 998.6 |
| 20260902231549 | 94 | 205 | 7.0 | 0.0 | 0.00 | 0.00 | 0.00 | 20 | 998.6 |
| 20260902230058 | 95 | 207 | 8.0 | 0.0 | 0.00 | 0.00 | 0.00 | 19 | 998.8 |
| 20260902224505 | 95 | 209 | 8.0 | 0.0 | 0.00 | 0.00 | 0.00 | 20 | 998.7 |
| 20260902223008 | 95 | 182 | 8.0 | 0.0 | 0.00 | 0.00 | 0.00 | 21 | 998.9 |
| 20260902221518 | 95 | 212 | 9.0 | 0.0 | 0.00 | 0.00 | 0.00 | 21 | 999.0 |
| 20260902220007 | 95 | 192 | 9.0 | 0.0 | 0.00 | 0.00 | 0.00 | 21 | 998.7 |
| 20260902214519 | 95 | 192 | 7.0 | 0.0 | 0.00 | 0.00 | 0.00 | 22 | 998.7 |
| 20260902213021 | 95 | 189 | 9.0 | 0.0 | 0.00 | 0.00 | 0.00 | 21 | 998.9 |
| 20260902211543 | 94 | 214 | 7.0 | 0.0 | 0.00 | 0.00 | 0.00 | 24 | 998.9 |
| 20260902210027 | 95 | 189 | 6.0 | 0.0 | 0.00 | 0.00 | 0.00 | 23 | 999.3 |
| 20260902204527 | 95 | 214 | 5.0 | 0.0 | 0.00 | 0.00 | 0.00 | 24 | 999.3 |
| 20260902203041 | 94 | 189 | 7.0 | 0.0 | 0.00 | 0.00 | 0.00 | 27 | 999.6 |
| 20260902201554 | 94 | 233 | 5.0 | 0.0 | 0.00 | 0.00 | 0.00 | 28 | 999.9 |
| 20260902200138 | 93 | 220 | 7.0 | 0.0 | 0.00 | 0.00 | 0.00 | 28 | 999.9 |
| 20260902194534 | 93 | 210 | 6.0 | 0.0 | 0.00 | 0.00 | 0.00 | 29 | 1000.0 |
| 20260902193032 | 92 | 128 | 5.0 | 0.0 | 0.00 | 0.00 | 0.00 | 33 | 1000.1 |
| 20260902191557 | 91 | 250 | 4.0 | 0.0 | 0.00 | 0.00 | 0.00 | 35 | 1000.4 |
| 20260902190031 | 90 | 206 | 6.0 | 0.0 | 0.00 | 0.00 | 0.00 | 36 | 1000.4 |
| 20260902184549 | 89 | 240 | 5.0 | 0.0 | 0.00 | 0.00 | 0.00 | 37 | 1000.7 |
| 20260902181547 | 88 | 196 | 6.0 | 0.0 | 0.00 | 0.00 | 0.00 | 36 | 1001.4 |
| 20260902180010 | 88 | 196 | 5.0 | 0.0 | 0.00 | 0.00 | 0.00 | 37 | 1001.3 |
| 20260902174530 | 88 | 100 | 3.0 | 0.0 | 0.00 | 0.00 | 0.00 | 38 | 1001.5 |
| 20260902173038 | 86 | 260 | 4.0 | 0.0 | 0.00 | 0.00 | 0.00 | 45 | 1001.6 |
| 20260902171505 | 85 | 185 | 3.0 | 0.0 | 0.00 | 0.00 | 0.00 | 42 | 1001.7 |
| 20260902170018 | 84 | 238 | 3.0 | 0.0 | 0.00 | 0.00 | 0.00 | 44 | 1002.0 |
| 20260902164515 | 83 | 212 | 3.0 | 0.0 | 0.00 | 0.00 | 0.00 | 47 | 1002.1 |
| 20260902163022 | 82 | 237 | 3.0 | 0.0 | 0.00 | 0.00 | 0.00 | 47 | 1002.1 |
| 20260902161557 | 81 | 212 | 3.0 | 0.0 | 0.00 | 0.00 | 0.00 | 49 | 1002.5 |
| 20260902160006 | 79 | 284 | 3.0 | 0.0 | 0.00 | 0.00 | 0.00 | 51 | 1003.1 |
| 20260902154509 | 78 | 222 | 4.0 | 0.0 | 0.00 | 0.00 | 0.00 | 53 | 1003.1 |
| 20260902153028 | 77 | 246 | 4.0 | 0.0 | 0.00 | 0.00 | 0.00 | 55 | 1003.5 |
| 20260902151603 | 76 | 277 | 5.0 | 0.0 | 0.00 | 0.00 | 0.00 | 58 | 1003.7 |
| 20260902150022 | 75 | 277 | 4.0 | 0.0 | 0.00 | 0.00 | 0.00 | 62 | 1003.7 |
| 20260902144541 | 73 | 214 | 4.0 | 0.0 | 0.00 | 0.00 | 0.00 | 63 | 1004.0 |
| 20260902143052 | 72 | 282 | 3.0 | 0.0 | 0.00 | 0.00 | 0.00 | 66 | 1004.1 |
| 20260902141550 | 70 | 219 | 4.0 | 0.0 | 0.00 | 0.00 | 0.00 | 67 | 1004.5 |
| 20260902140013 | 68 | 264 | 4.0 | 0.0 | 0.00 | 0.00 | 0.00 | 70 | 1004.5 |
| 20260902134539 | 67 | 272 | 4.0 | 0.0 | 0.00 | 0.00 | 0.00 | 72 | 1004.8 |
| 20260902133046 | 66 | 236 | 5.0 | 0.0 | 0.00 | 0.00 | 0.00 | 74 | 1005.0 |
| 20260902131551 | 65 | 226 | 4.0 | 0.0 | 0.00 | 0.00 | 0.00 | 78 | 1005.2 |
| 20260902130015 | 63 | 244 | 2.0 | 0.0 | 0.00 | 0.00 | 0.00 | 80 | 1003.1 |
| 20260902124538 | 63 | 224 | 2.0 | 0.0 | 0.00 | 0.00 | 0.00 | 80 | 1003.1 |
| 20260902123035 | 63 | 229 | 1.0 | 0.0 | 0.00 | 0.00 | 0.00 | 80 | 1002.9 |
| 20260902121548 | 63 | 205 | 1.0 | 0.0 | 0.00 | 0.00 | 0.00 | 80 | 1002.6 |
| 20260902120059 | 63 | 198 | 3.0 | 0.0 | 0.00 | 0.00 | 0.00 | 79 | 1002.3 |
| 20260902114511 | 63 | 198 | 3.0 | 0.0 | 0.00 | 0.00 | 0.00 | 81 | 1002.2 |
| 20260902113005 | 63 | 200 | 0.0 | 0.0 | 0.00 | 0.00 | 0.00 | 79 | 1002.2 |
| 20260902111513 | 64 | 200 | 1.0 | 0.0 | 0.00 | 0.00 | 0.00 | 79 | 1002.2 |
| 20260902110031 | 64 | 205 | 3.0 | 0.0 | 0.00 | 0.00 | 0.00 | 80 | 1002.0 |
| 20260902104526 | 64 | 178 | 1.0 | 0.0 | 0.00 | 0.00 | 0.00 | 79 | 1002.0 |